Date String (YYYY-MM-DD hh:mm:ss) UTC,Instrument flags,Ambient pressure (hPa),Sample flow (lpm),Bypass flow (lpm),Sample temperature (°C),Ambient temperature (°C),ASC tube jacket temperature (°C),LED temperature (°C),Box temperature (°C),Sample RH (%),Span deviation,Mass concentration (μg/m³),Mass concentration (μg/m³),Mass concentration (μg/m³)
DateTimeUTC,F1_M11,P_M11,Q1_M11,Q2_M11,T1_M11,T2_M11,T3_M11,T4_M11,T5_M11,U1_M11,ZSPAN_M11,X0_M11,X2_M11,X1_M11
2022-01-07 01:00:00,,0819.0,4.99,0.00,22.1,22.7,00.0,31.1,24.0,05.3,0002.3,0013.86,0008.76,0007.84
2022-01-07 01:01:00,,0818.8,5.00,0.00,22.2,22.9,00.0,31.2,24.1,05.3,0002.3,0013.85,0008.78,0007.88
2022-01-07 01:02:00,,0819.0,4.99,0.00,22.3,22.7,00.0,31.2,24.1,05.3,0002.6,0013.67,0008.77,0007.91
2022-01-07 01:03:00,,0819.0,5.02,0.00,22.2,22.2,00.0,31.2,23.9,05.3,0003.0,0013.76,0008.84,0007.95
2022-01-07 01:04:00,,0818.1,5.00,0.00,22.1,21.7,00.0,31.2,23.6,05.3,0003.1,0013.77,0008.86,0007.96
2022-01-07 01:05:00,,0818.2,5.00,0.00,22.0,21.5,00.0,31.1,23.5,05.4,0002.8,0014.06,0008.89,0008.00
2022-01-07 01:06:00,,0818.8,5.00,0.00,22.0,21.3,00.0,31.1,23.5,05.4,0002.7,0014.23,0008.96,0008.05
2022-01-07 01:07:00,,0819.0,5.00,0.00,21.9,21.1,00.0,31.1,23.4,05.4,0002.7,0014.15,0008.95,0008.07
2022-01-07 01:08:00,,0818.9,5.00,0.00,21.8,20.9,00.0,31.0,23.2,05.5,0002.6,0014.03,0008.96,0008.07
2022-01-07 01:09:00,,0818.7,5.01,0.00,21.7,21.0,00.0,31.0,23.1,05.5,0002.4,0013.80,0008.93,0008.05
2022-01-07 01:10:00,,0818.4,4.99,0.00,21.8,21.7,00.0,31.0,23.4,05.5,0002.5,0013.79,0008.95,0008.07
2022-01-07 01:11:00,,0818.5,5.01,0.00,22.0,22.6,00.0,31.1,23.8,05.4,0002.8,0013.90,0009.01,0008.10
2022-01-07 01:12:00,,0818.7,4.99,0.00,22.1,23.1,00.0,31.1,24.0,05.4,0002.7,0014.12,0009.03,0008.10
2022-01-07 01:13:00,,0818.6,4.99,0.00,22.2,22.8,00.0,31.1,24.0,05.4,0002.6,0014.28,0009.06,0008.09
2022-01-07 01:14:00,,0818.6,5.01,0.00,22.2,22.5,00.0,31.1,23.9,05.4,0002.6,0014.14,0009.01,0008.08
2022-01-07 01:15:00,,0818.3,4.99,0.00,22.1,22.0,00.0,31.1,23.7,05.4,0002.8,0014.12,0008.99,0008.08
2022-01-07 01:16:00,,0818.2,5.00,0.00,22.0,21.7,00.0,31.1,23.6,05.4,0003.0,0014.15,0009.06,0008.10
2022-01-07 01:17:00,,0818.7,5.00,0.00,22.0,21.5,00.0,31.1,23.5,05.4,0003.3,0014.16,0009.09,0008.10
2022-01-07 01:18:00,,0818.4,5.02,0.00,21.9,21.1,00.0,31.0,23.3,05.5,0003.3,0014.34,0009.14,0008.10
2022-01-07 01:19:00,,0818.2,4.99,0.00,21.8,20.8,00.0,31.0,23.2,05.5,0003.3,0014.84,0009.18,0008.14
2022-01-07 01:20:00,,0818.4,5.02,0.00,21.7,20.7,00.0,31.0,23.2,05.5,0003.4,0015.83,0009.21,0008.18
2022-01-07 01:21:00,,0818.4,4.98,0.00,21.7,21.3,00.0,31.0,23.3,05.5,0003.3,0016.09,0009.28,0008.22
2022-01-07 01:22:00,,0818.5,5.00,0.00,21.9,22.2,00.0,31.0,23.7,05.5,0002.8,0016.08,0009.32,0008.27
2022-01-07 01:23:00,,0818.9,5.00,0.00,22.0,22.8,00.0,31.1,23.9,05.4,0003.0,0015.94,0009.37,0008.30
2022-01-07 01:24:00,,0819.0,5.01,0.00,22.0,22.3,00.0,31.0,23.8,05.4,0003.1,0015.80,0009.36,0008.33
2022-01-07 01:25:00,,0818.6,4.99,0.00,21.9,21.7,00.0,31.0,23.5,05.4,0002.8,0015.91,0009.40,0008.36
2022-01-07 01:26:00,,0818.2,5.02,0.00,21.8,21.3,00.0,31.0,23.3,05.5,0002.5,0016.00,0009.45,0008.40
2022-01-07 01:27:00,,0818.1,4.99,0.00,21.7,21.0,00.0,31.0,23.2,05.5,0002.4,0015.88,0009.44,0008.42
2022-01-07 01:28:00,,0818.4,4.99,0.00,21.7,20.8,00.0,30.9,23.1,05.5,0002.1,0015.91,0009.49,0008.46
2022-01-07 01:29:00,,0818.5,5.01,0.00,21.6,20.6,00.0,30.9,22.9,05.5,0002.0,0015.79,0009.48,0008.49
2022-01-07 01:30:00,,0818.2,5.00,0.00,21.4,20.5,00.0,30.8,22.8,05.6,0002.0,0015.57,0009.48,0008.51
2022-01-07 01:31:00,,0818.1,5.00,0.00,21.5,21.3,00.0,30.8,23.1,05.6,0001.9,0014.71,0009.50,0008.51
2022-01-07 01:32:00,,0818.6,5.01,0.00,21.7,22.2,00.0,30.9,23.4,05.5,0001.8,0014.49,0009.52,0008.52
2022-01-07 01:33:00,,0818.6,4.98,0.00,21.8,22.8,00.0,30.9,23.7,05.5,0001.9,0014.56,0009.55,0008.53
2022-01-07 01:34:00,,0818.4,5.00,0.00,21.9,22.6,00.0,30.9,23.7,05.4,0001.6,0014.72,0009.53,0008.53
2022-01-07 01:35:00,,0818.4,5.00,0.00,21.9,22.3,00.0,30.9,23.7,05.4,0001.5,0014.99,0009.60,0008.57
2022-01-07 01:36:00,,0818.0,5.01,0.00,21.9,22.0,00.0,30.9,23.7,05.4,0001.5,0015.06,0009.64,0008.61
2022-01-07 01:37:00,,0817.8,4.99,0.00,21.9,21.7,00.0,30.9,23.6,05.4,0001.5,0015.15,0009.72,0008.64
2022-01-07 01:38:00,,0818.1,5.00,0.00,21.8,21.3,00.0,30.9,23.4,05.5,0001.3,0015.29,0009.80,0008.70
2022-01-07 01:39:00,,0818.3,4.99,0.00,21.7,20.8,00.0,30.9,23.2,05.5,0001.3,0015.27,0009.81,0008.72
2022-01-07 01:40:00,,0817.9,5.01,0.00,21.6,20.5,00.0,30.8,23.0,05.6,0001.3,0015.42,0009.87,0008.78
2022-01-07 01:41:00,,0818.0,4.98,0.00,21.5,20.8,00.0,30.8,23.0,05.6,0001.1,0015.59,0009.95,0008.86
2022-01-07 01:42:00,,0818.2,5.00,0.00,21.6,21.7,00.0,30.8,23.3,05.6,0001.4,0016.84,0010.00,0008.91
2022-01-07 01:43:00,,0818.3,4.99,0.00,21.8,22.6,00.0,30.9,23.6,05.5,0001.8,0017.32,0009.95,0008.90
2022-01-07 01:44:00,,0818.4,5.00,0.00,21.9,22.6,00.0,30.9,23.7,05.4,0001.9,0017.28,0009.94,0008.91
2022-01-07 01:45:00,,0818.2,5.02,0.00,21.9,22.2,00.0,30.9,23.6,05.4,0002.0,0017.28,0010.00,0008.94
2022-01-07 01:46:00,,0818.0,5.00,0.00,21.8,21.8,00.0,30.9,23.4,05.5,0002.0,0017.19,0010.06,0009.00
2022-01-07 01:47:00,,0817.9,4.99,0.00,21.7,21.5,00.0,30.8,23.2,05.5,0001.9,0017.17,0010.11,0009.06
2022-01-07 01:48:00,,0817.9,5.00,0.00,21.6,21.1,00.0,30.8,23.1,05.5,0001.8,0017.09,0010.10,0009.13
2022-01-07 01:49:00,,0818.2,5.00,0.00,21.5,20.8,00.0,30.8,22.9,05.6,0001.8,0016.96,0010.06,0009.15
2022-01-07 01:50:00,,0818.3,5.02,0.00,21.4,20.8,00.0,30.8,22.8,05.6,0002.0,0017.01,0010.06,0009.16
2022-01-07 01:51:00,,0818.1,5.00,0.00,21.6,21.7,00.0,30.8,23.2,05.6,0001.7,0016.95,0010.06,0009.15
2022-01-07 01:52:00,,0818.0,4.98,0.00,21.7,22.5,00.0,30.8,23.5,05.5,0001.5,0017.04,0010.02,0009.12
2022-01-07 01:53:00,,0818.1,5.00,0.00,21.9,22.9,00.0,30.8,23.7,05.5,0001.3,0015.63,0009.99,0009.13
2022-01-07 01:54:00,,0818.4,5.00,0.00,21.9,22.4,00.0,30.8,23.5,05.5,0000.9,0015.14,0010.06,0009.20
2022-01-07 01:55:00,,0818.2,5.00,0.00,21.7,21.7,00.0,30.8,23.3,05.5,0000.7,0015.19,0010.09,0009.24
2022-01-07 01:56:00,,0818.0,5.01,0.00,21.7,21.4,00.0,30.8,23.2,05.5,0000.9,0015.58,0010.08,0009.23
2022-01-07 01:57:00,,0818.0,5.00,0.00,21.6,21.2,00.0,30.8,23.2,05.5,0000.9,0016.17,0010.06,0009.19
2022-01-07 01:58:00,,0818.2,5.00,0.00,21.6,21.0,00.0,30.8,23.1,05.5,0001.1,0016.30,0010.08,0009.16
2022-01-07 01:59:00,,0818.0,5.01,0.00,21.4,20.7,00.0,30.7,22.8,05.6,0001.1,0016.49,0010.06,0009.12
